When you browse on this site, cookies collect data to enhance your experience and personalize the content and advertising you see.
Visit our Privacy Policy to learn more. By continuing to use the site, you agree to this use of cookies and data.
  • In Latvia
  • List of Countries
  • For 7 days
  • Water Temperature
  • Satellite Maps
  • Weather Map
  • Weather Widgets
  • user-avatar
    Login

    Hourly Weather Kapan

    Today, 19 April, Friday

    Time Temperature Precipitation Wind Pressure Humidity
    00:00 +10°C° 0.2 mm 1 mps 681 mmHg 94%
    01:00 +9°C° 0.2 mm 1 mps 680 mmHg 93%
    02:00 +9°C° 0.2 mm 1 mps 680 mmHg 93%
    03:00 +8°C° 0 mm 2 mps 680 mmHg 95%
    04:00 +8°C° 0.3 mm 2 mps 680 mmHg 94%
    05:00 +7°C° 0.3 mm 2 mps 680 mmHg 94%
    06:00 +7°C° 0.3 mm 2 mps 680 mmHg 93%
    07:00 +8°C° 0.4 mm 2 mps 680 mmHg 90%
    08:00 +8°C° 0.4 mm 2 mps 680 mmHg 86%
    09:00 +8°C° 0 mm 3 mps 680 mmHg 84%
    10:00 +9°C° 0.5 mm 3 mps 680 mmHg 82%
    11:00 +9°C° 0.5 mm 3 mps 680 mmHg 80%
    12:00 +9°C° 0.5 mm 3 mps 680 mmHg 78%
    13:00 +9°C° 0.4 mm 3 mps 679 mmHg 80%
    14:00 +7°C° 0.4 mm 4 mps 679 mmHg 82%
    15:00 +7°C° 0.4 mm 4 mps 678 mmHg 84%
    16:00 +7°C° 0.5 mm 3 mps 678 mmHg 86%
    17:00 +5°C° 0.5 mm 3 mps 678 mmHg 88%
    18:00 +5°C° 0.5 mm 3 mps 678 mmHg 91%
    19:00 +4°C° 0.9 mm 3 mps 679 mmHg 91%
    20:00 +5°C° 0.9 mm 2 mps 679 mmHg 92%
    21:00 +4°C° 0.9 mm 2 mps 679 mmHg 93%
    22:00 +4°C° 0.9 mm 2 mps 679 mmHg 93%
    23:00 +4°C° 0.9 mm 2 mps 679 mmHg 93%

    Tomorrow, 20 April, Saturday

    Time Temperature Precipitation Wind Pressure Humidity
    00:00 +3°C° 0.9 mm 2 mps 679 mmHg 93%
    01:00 +3°C° 0.9 mm 2 mps 679 mmHg 94%
    02:00 +3°C° 0.9 mm 2 mps 678 mmHg 94%
    03:00 +2°C° 0.9 mm 2 mps 678 mmHg 94%
    04:00 +2°C° 0.8 mm 2 mps 678 mmHg 94%
    05:00 +2°C° 0.8 mm 2 mps 678 mmHg 94%
    06:00 +2°C° 0.8 mm 2 mps 678 mmHg 94%
    07:00 +2°C° 0.6 mm 2 mps 679 mmHg 92%
    08:00 +2°C° 0.6 mm 2 mps 679 mmHg 91%
    09:00 +3°C° 0.6 mm 2 mps 680 mmHg 89%
    10:00 +3°C° 0.5 mm 2 mps 680 mmHg 86%
    11:00 +4°C° 0.5 mm 2 mps 681 mmHg 83%
    12:00 +5°C° 0.5 mm 2 mps 681 mmHg 80%
    13:00 +4°C° 0.2 mm 3 mps 681 mmHg 79%
    14:00 +5°C° 0.2 mm 3 mps 681 mmHg 78%
    15:00 +5°C° 0.2 mm 3 mps 681 mmHg 77%
    16:00 +5°C° 0.1 mm 3 mps 682 mmHg 80%
    17:00 +5°C° 0.1 mm 2 mps 682 mmHg 82%
    18:00 +4°C° 0.1 mm 2 mps 682 mmHg 85%
    19:00 +4°C° 0.1 mm 2 mps 682 mmHg 87%
    20:00 +4°C° 0.1 mm 1 mps 682 mmHg 90%
    21:00 +3°C° 0.1 mm 1 mps 683 mmHg 93%
    22:00 +3°C° 0 mm 1 mps 683 mmHg 92%
    23:00 +1°C° 0 mm 0 mps 683 mmHg 91%

    Day after tomorrow, 21 April, Sunday

    Time Temperature Precipitation Wind Pressure Humidity
    00:00 +1°C° 0 mm 0 mps 683 mmHg 91%
    01:00 +1°C° 0 mm 0 mps 683 mmHg 90%
    02:00 +1°C° 0 mm 0 mps 682 mmHg 89%
    03:00 +2°C° 0 mm 1 mps 682 mmHg 87%
    04:00 +3°C° 0.1 mm 1 mps 683 mmHg 87%
    05:00 +3°C° 0.1 mm 1 mps 683 mmHg 87%
    06:00 +3°C° 0.1 mm 1 mps 683 mmHg 87%
    07:00 +4°C° 0.2 mm 1 mps 683 mmHg 84%
    08:00 +5°C° 0.2 mm 2 mps 683 mmHg 81%
    09:00 +5°C° 0.2 mm 3 mps 683 mmHg 78%
    10:00 +5°C° 0.2 mm 3 mps 683 mmHg 77%
    11:00 +7°C° 0.2 mm 3 mps 683 mmHg 75%
    12:00 +7°C° 0.2 mm 3 mps 683 mmHg 74%
    13:00 +8°C° 0.1 mm 3 mps 682 mmHg 74%
    14:00 +8°C° 0.1 mm 3 mps 682 mmHg 74%
    15:00 +7°C° 0.1 mm 4 mps 682 mmHg 74%
    16:00 +7°C° 0.1 mm 3 mps 681 mmHg 78%
    17:00 +5°C° 0.1 mm 3 mps 681 mmHg 81%
    18:00 +5°C° 0.1 mm 3 mps 681 mmHg 85%
    19:00 +5°C° 0.1 mm 2 mps 682 mmHg 87%
    20:00 +5°C° 0.1 mm 2 mps 682 mmHg 90%
    21:00 +4°C° 0.1 mm 2 mps 683 mmHg 92%
    22:00 +4°C° 0.4 mm 2 mps 683 mmHg 93%
    23:00 +4°C° 0.4 mm 2 mps 683 mmHg 93%

    22 April, Monday

    Time Temperature Precipitation Wind Pressure Humidity
    00:00 +3°C° 0.4 mm 2 mps 683 mmHg 93%
    01:00 +3°C° 0.1 mm 2 mps 682 mmHg 94%
    02:00 +3°C° 0.1 mm 2 mps 682 mmHg 94%
    03:00 +2°C° 0.1 mm 2 mps 682 mmHg 94%
    04:00 +3°C° 0.1 mm 1 mps 682 mmHg 92%
    05:00 +3°C° 0.1 mm 1 mps 682 mmHg 90%
    06:00 +4°C° 0.1 mm 1 mps 682 mmHg 88%
    07:00 +3°C° 0.3 mm 2 mps 683 mmHg 85%
    08:00 +4°C° 0.3 mm 2 mps 683 mmHg 82%
    09:00 +4°C° 0.3 mm 3 mps 683 mmHg 78%
    10:00 +5°C° 0.6 mm 3 mps 682 mmHg 79%
    11:00 +5°C° 0.6 mm 3 mps 682 mmHg 80%
    12:00 +5°C° 0.6 mm 3 mps 682 mmHg 81%
    13:00 +5°C° 0.6 mm 3 mps 681 mmHg 82%
    14:00 +5°C° 0.6 mm 3 mps 681 mmHg 83%
    15:00 +4°C° 0.6 mm 3 mps 681 mmHg 84%
    16:00 +4°C° 0.8 mm 3 mps 681 mmHg 86%
    17:00 +3°C° 0.8 mm 3 mps 681 mmHg 89%
    18:00 +4°C° 0.8 mm 2 mps 681 mmHg 91%
    19:00 +4°C° 1 mm 2 mps 682 mmHg 91%
    20:00 +4°C° 1 mm 2 mps 682 mmHg 91%
    21:00 +4°C° 1 mm 2 mps 683 mmHg 91%
    22:00 +3°C° 1.1 mm 2 mps 683 mmHg 93%
    23:00 +3°C° 1.1 mm 2 mps 683 mmHg 94%

    23 April, Tuesday

    Time Temperature Precipitation Wind Pressure Humidity
    00:00 +3°C° 1.1 mm 2 mps 683 mmHg 96%
    01:00 +3°C° 0.7 mm 2 mps 683 mmHg 95%
    02:00 +3°C° 0.7 mm 2 mps 683 mmHg 95%
    03:00 +3°C° 0.7 mm 1 mps 684 mmHg 95%
    04:00 +3°C° 0.4 mm 1 mps 684 mmHg 93%
    05:00 +3°C° 0.4 mm 1 mps 685 mmHg 92%
    06:00 +3°C° 0.4 mm 1 mps 685 mmHg 90%
    07:00 +4°C° 0.4 mm 1 mps 686 mmHg 89%
    08:00 +5°C° 0.4 mm 1 mps 686 mmHg 88%
    09:00 +6°C° 0.4 mm 1 mps 687 mmHg 87%
    10:00 +6°C° 0.3 mm 1 mps 687 mmHg 85%
    11:00 +6°C° 0.3 mm 2 mps 687 mmHg 83%
    12:00 +7°C° 0.3 mm 2 mps 688 mmHg 82%
    13:00 +7°C° 0.2 mm 3 mps 687 mmHg 80%
    14:00 +7°C° 0.2 mm 3 mps 687 mmHg 79%
    15:00 +7°C° 0.2 mm 3 mps 687 mmHg 78%
    16:00 +7°C° 0.2 mm 2 mps 687 mmHg 79%
    17:00 +6°C° 0.2 mm 2 mps 688 mmHg 80%
    18:00 +7°C° 0.2 mm 1 mps 688 mmHg 81%
    19:00 +6°C° 0.3 mm 1 mps 688 mmHg 83%
    20:00 +5°C° 0.3 mm 1 mps 688 mmHg 85%
    21:00 +4°C° 0.3 mm 1 mps 689 mmHg 87%
    22:00 +4°C° 0.2 mm 1 mps 689 mmHg 86%
    23:00 +4°C° 0.2 mm 1 mps 689 mmHg 85%

    24 April, Wednesday

    Time Temperature Precipitation Wind Pressure Humidity
    00:00 +4°C° 0.2 mm 1 mps 689 mmHg 84%
    01:00 +4°C° 0.1 mm 1 mps 689 mmHg 83%
    02:00 +3°C° 0.1 mm 1 mps 689 mmHg 82%
    03:00 +3°C° 0.1 mm 1 mps 689 mmHg 81%
    04:00 +4°C° 0.1 mm 1 mps 689 mmHg 80%
    05:00 +4°C° 0.1 mm 1 mps 690 mmHg 78%
    06:00 +5°C° 0.1 mm 1 mps 690 mmHg 77%
    07:00 +6°C° 0.1 mm 1 mps 690 mmHg 73%
    08:00 +7°C° 0.1 mm 1 mps 690 mmHg 70%
    09:00 +9°C° 0.1 mm 1 mps 690 mmHg 66%
    10:00 +9°C° 0.1 mm 2 mps 690 mmHg 65%
    11:00 +9°C° 0.1 mm 2 mps 690 mmHg 64%
    12:00 +10°C° 0.1 mm 3 mps 689 mmHg 63%
    13:00 +10°C° 0.2 mm 2 mps 689 mmHg 62%
    14:00 +10°C° 0.2 mm 2 mps 689 mmHg 62%
    15:00 +10°C° 0.2 mm 2 mps 688 mmHg 61%
    16:00 +9°C° 0.3 mm 2 mps 688 mmHg 64%
    17:00 +8°C° 0.3 mm 2 mps 688 mmHg 67%
    18:00 +8°C° 0.3 mm 1 mps 688 mmHg 69%
    19:00 +8°C° 0.2 mm 1 mps 688 mmHg 72%
    20:00 +7°C° 0.2 mm 1 mps 688 mmHg 74%
    21:00 +6°C° 0.2 mm 1 mps 689 mmHg 76%
    22:00 +6°C° 0.1 mm 1 mps 689 mmHg 77%
    23:00 +5°C° 0.1 mm 1 mps 689 mmHg 77%
    Show more